GFSGBSN_con_lsi_132.txt.gz
Lid_Strength_Index
2 2 3 2 2 2 1 1 1 1 0 1 0 0 -0 -1 -1 -1 -1 -1 -1 -1 -1 -1 -1 -1 0 5 5 -1 -1 -1 -0 1 3 4 5 6 9 7 7 8 7 6 5 6 7
2 2 2 1 1 1 1 1 1 1 1 1 1 0 0 -0 -1 -1 -1 -1 -1 -1 -1 -2 -2 -1 2 8 -0 -1 -0 -0 1 2 3 3 5 4 7 7 8 6 7 7 6 6 6
2 2 2 2 1 1 1 1 1 1 1 1 1 0 0 -0 -1 -1 -1 -1 -1 -1 -1 -2 -2 -0 4 5 -0 -1 -0 1 0 1 4 2 2 5 5 8 5 6 9 8 7 7 7
2 2 2 2 1 1 1 1 1 1 1 1 1 1 0 -0 -1 -1 -1 -1 -1 -1 -1 -2 -2 1 6 -0 -1 0 -0 1 0 0 1 1 2 4 6 5 7 9 9 13 8 7 7
2 1 1 1 1 1 1 1 1 1 1 1 1 0 0 -0 -0 -1 -1 -1 -1 -1 -2 -2 1 3 7 -1 2 1 0 3 2 1 1 1 2 6 6 10 12 11 15 13 11 7 8
2 2 1 1 1 1 1 1 1 1 1 1 0 0 -0 -0 -1 -1 -1 -1 -1 -1 -1 -0 1 6 4 5 2 1 0 1 3 4 5 5 7 10 10 11 16 14 14 12 12 9 9
1 1 1 1 1 1 1 1 1 1 0 0 -0 -0 -0 -1 -1 -2 -1 1 4 5 4 6 6 6 5 2 1 3 1 3 4 6 10 7 11 13 11 10 10 10 11 12 10 8 10
1 1 1 1 1 1 1 1 1 1 0 0 -0 -1 -0 -1 -1 -1 -0 4 4 3 8 4 4 4 3 2 6 4 2 7 7 11 8 10 13 9 8 8 10 11 12 12 10 8 10
1 1 1 1 1 1 1 1 1 1 1 0 0 -0 -0 -1 -1 -0 2 3 -0 1 8 7 5 5 4 3 6 6 4 6 9 10 10 12 10 8 9 10 11 11 12 12 12 9 10
2 2 1 2 2 2 2 1 1 1 1 1 1 0 0 -0 2 2 4 0 -1 1 12 11 8 6 4 4 8 3 3 6 8 11 10 11 8 9 10 11 10 14 9 10 11 13 17
1 1 1 1 1 1 1 2 1 1 1 1 1 1 0 0 3 5 3 0 -0 3 20 9 9 2 4 7 6 6 3 6 10 10 10 12 11 11 12 11 9 12 9 10 11 13 15
-1 -1 -1 -1 -1 -1 -0 0 0 0 0 0 0 0 -0 1 2 2 1 -0 2 13 20 12 8 9 9 8 7 6 7 5 6 9 9 10 7 9 10 8 8 8 11 11 12 14 19
-1 -1 -1 -1 -1 -1 -1 -1 -1 -1 -1 -1 -1 -1 -0 -0 4 0 -0 4 14 18 11 13 12 10 10 11 10 9 10 11 12 15 15 12 11 9 8 12 10 10 13 19 20 20 20
-1 -1 -1 -1 -1 -1 -1 -1 -1 -1 -1 -1 -1 -1 -0 0 -1 -0 2 9 17 13 13 9 10 10 13 10 10 10 11 13 10 10 13 16 17 11 9 11 12 12 13 18 22 21 19
-1 -1 -1 -1 -1 -1 -1 -1 -1 -1 -1 -1 -1 1 1 0 -1 0 7 15 15 12 11 11 11 13 13 11 11 11 12 12 10 10 14 16 15 10 9 9 10 13 15 11 16 16 18
-1 -1 -1 -1 -1 -1 -1 -1 -1 -1 -1 -1 2 3 3 0 0 3 10 13 12 9 8 10 14 12 15 13 13 12 13 10 11 8 8 12 16 11 10 8 9 11 10 16 16 21 22
-1 -1 -1 -1 -1 -1 -1 -1 -1 -1 -1 -1 3 6 2 -0 1 8 13 12 11 8 7 10 12 13 13 13 12 13 12 10 8 9 8 10 12 14 11 13 14 13 14 13 14 15 20
-1 -1 -1 -1 -1 -1 -1 -0 -1 -1 -1 0 4 10 2 1 9 9 12 10 7 9 7 9 9 11 12 11 12 13 12 10 7 8 11 9 12 16 14 10 9 11 12 12 17 18 16
-1 -1 -1 -1 -1 -1 -1 -1 -0 -1 -1 2 7 7 2 2 12 11 10 10 8 9 10 10 11 9 9 11 13 11 10 7 7 8 10 9 14 17 16 13 11 13 11 11 11 13 16
-1 -1 -1 -1 -1 -1 -1 -1 -0 -1 -1 2 7 10 7 6 6 9 11 11 11 7 9 8 10 8 10 11 10 12 11 8 7 7 7 8 12 14 17 15 13 15 13 12 13 17 16
-0 -0 -0 -0 -0 -0 -0 -0 -0 -0 -0 3 7 9 8 11 10 9 9 10 12 12 9 8 10 10 10 13 12 12 10 10 8 7 8 9 14 13 12 11 12 13 13 13 14 13 16
-0 -0 -0 -0 -0 -0 -0 -0 -0 -0 1 4 8 8 7 8 8 9 9 11 11 11 10 11 11 10 9 12 11 12 10 10 11 9 9 9 14 12 15 12 12 13 12 12 12 12 13
0 -0 -0 -0 -0 -0 -0 -0 -0 -0 0 5 4 4 6 8 9 10 10 10 10 9 9 8 9 10 10 9 7 7 7 7 8 10 11 11 13 14 17 13 13 17 13 12 12 11 11
0 0 0 0 0 0 0 -0 -0 -0 1 3 3 4 8 11 10 10 10 9 9 9 10 8 7 9 7 5 6 7 7 8 8 9 8 12 13 13 17 15 20 13 9 9 11 10 10
0 0 0 0 0 0 0 0 0 -0 -0 2 2 4 7 11 9 9 9 10 8 8 9 9 8 7 5 7 11 13 13 12 12 11 10 9 11 15 17 17 15 13 12 11 12 12 13
1 1 1 1 1 1 0 0 0 0 1 1 2 2 5 9 10 7 9 8 10 10 11 10 8 7 6 10 12 16 18 18 15 13 10 9 9 13 16 19 22 14 12 10 9 16 14
1 1 0 1 1 1 0 0 0 0 -0 1 3 2 4 9 7 7 9 9 7 9 11 10 11 9 9 11 14 16 20 16 16 16 15 14 13 16 17 19 16 14 12 10 17 16 16
1 1 1 1 1 0 0 0 0 0 -0 1 3 2 5 9 9 8 8 7 8 9 11 9 10 11 12 13 15 18 18 17 18 15 14 14 15 16 15 17 18 16 14 14 17 17 17
0 1 0 1 1 0 0 0 0 -0 -0 1 5 4 3 7 9 7 7 7 7 8 7 10 10 11 10 13 14 16 19 19 18 18 13 16 12 14 14 16 17 18 19 18 17 18 19

GFSGBSN_con_lsi_135.txt.gz
Lid_Strength_Index
2 2 2 2 2 2 1 1 1 1 1 0 0 -0 -0 -0 -1 -1 -1 -1 -1 -1 -1 -2 -2 -1 1 5 5 -0 -1 -1 0 2 3 4 6 7 10 8 7 9 8 6 6 6 7
2 2 2 2 2 2 2 2 1 1 1 1 0 1 0 0 -0 -1 -1 -1 -1 -1 -1 -2 -2 -1 3 8 1 -0 -0 0 1 2 3 4 5 5 7 8 9 7 7 7 7 7 6
2 3 2 2 1 1 1 1 2 2 2 1 1 1 1 1 -0 -0 -1 -1 -1 -1 -1 -2 -2 0 4 5 1 0 -0 1 1 1 4 3 3 6 6 9 6 7 10 8 8 7 8
2 2 2 2 1 1 1 1 1 1 2 2 2 2 1 0 0 -0 -0 -1 -1 -1 -1 -2 -2 2 8 1 0 1 0 1 0 1 2 2 2 5 7 6 7 10 10 14 9 8 7
3 3 2 3 2 2 2 1 1 1 1 1 1 1 1 0 0 -0 -0 -0 -1 -1 -1 -1 2 5 9 1 3 1 0 3 2 2 2 1 3 7 7 11 13 12 16 14 12 7 8
2 2 2 3 3 2 2 2 1 1 1 1 1 1 1 0 0 -0 -0 -1 -1 -1 -0 -0 2 6 6 6 3 1 1 1 3 4 5 6 7 10 10 12 17 14 15 13 13 9 9
1 2 2 2 1 1 2 1 1 1 1 1 1 1 -0 -0 -0 -1 0 3 5 6 3 6 6 7 6 5 1 3 2 3 4 6 10 9 12 13 11 10 11 11 13 13 11 8 10
1 2 1 1 1 1 1 1 1 1 1 1 1 1 0 -1 -1 -1 1 5 6 4 8 4 4 5 3 4 6 5 2 6 7 11 9 11 13 10 9 9 11 12 13 13 11 9 10
1 1 1 1 1 1 1 1 1 1 0 0 1 0 -0 -0 -1 0 3 4 1 1 9 7 5 5 5 4 7 7 4 6 9 11 11 12 11 8 9 11 12 12 13 13 13 10 10
2 1 1 1 1 1 1 1 1 0 0 0 0 0 -0 -1 2 3 4 1 -0 1 12 10 8 6 4 4 8 4 3 6 9 11 10 11 8 10 11 12 11 14 10 11 12 14 17
2 2 2 2 1 1 1 1 1 1 0 0 0 0 -0 -0 5 5 3 1 0 3 20 9 8 2 4 7 7 7 3 6 10 11 10 12 11 11 12 11 10 12 9 11 11 14 16
2 2 2 1 1 1 1 1 1 1 1 1 0 0 0 1 4 4 2 1 2 13 19 12 8 9 9 8 8 6 7 5 6 9 11 11 8 10 10 9 9 9 11 12 12 14 19
-0 0 1 0 -0 -0 0 0 1 1 1 1 1 1 1 2 5 2 1 3 13 18 10 13 12 10 10 11 10 9 10 11 12 15 15 12 12 10 8 11 10 10 13 19 20 20 20
-1 -1 -1 -1 -1 -1 -1 -1 -1 -0 0 1 1 1 1 2 2 2 3 9 17 14 14 9 10 10 12 10 10 10 11 13 10 11 13 15 17 12 9 11 13 13 13 18 22 21 19
-1 -1 -1 -1 -1 -1 -1 -1 -1 -1 -1 -1 -1 2 2 2 1 1 7 14 15 14 10 12 11 13 13 11 11 11 12 12 10 9 14 15 15 10 9 9 9 13 15 11 16 16 18
-1 -1 -1 -1 -1 -1 -1 -1 -1 -1 -1 -1 2 3 3 -0 -0 3 9 13 13 9 9 9 14 12 15 13 13 13 12 10 10 9 8 12 16 12 10 9 9 11 10 16 16 21 22
-1 -1 -1 -1 -1 -1 -1 -1 -1 -1 -1 -1 3 6 2 -0 1 7 13 12 10 8 8 10 11 13 13 13 13 13 13 11 9 9 8 10 12 14 11 13 13 13 14 13 14 16 20
-1 -1 -1 -1 -1 -1 -1 -1 -1 -1 -1 0 4 10 2 1 9 10 12 11 8 9 8 9 9 10 11 11 13 13 13 11 7 8 12 10 12 16 15 10 9 10 12 12 17 18 16
-1 -1 -1 -1 -1 -1 -1 -1 -1 -1 -1 2 7 7 2 2 12 12 9 10 9 9 9 10 11 10 9 11 14 12 11 8 7 9 10 10 14 17 16 13 11 13 12 12 12 13 17
-1 -1 -1 -1 -1 -1 -1 -1 -1 -1 -1 2 6 10 7 6 7 10 11 11 11 7 9 8 10 9 10 12 11 13 11 9 7 8 7 8 13 15 16 15 13 15 13 12 13 17 16
-1 -1 -1 -1 -1 -1 -1 -1 -1 -1 -1 3 6 9 8 11 10 10 9 10 11 12 8 8 10 10 11 14 12 13 10 10 8 7 8 9 15 13 12 12 12 13 13 13 14 13 15
-1 -0 -1 -1 -1 -1 -1 -1 -1 -1 -0 4 8 8 7 12 9 10 9 11 11 11 10 11 11 10 10 12 12 13 11 11 12 9 10 9 14 12 14 12 12 14 13 12 12 12 13
-0 -1 -1 -0 -0 -1 -1 -0 -1 -1 1 4 5 4 7 9 10 11 11 10 10 9 9 8 9 10 11 10 8 8 7 8 8 10 11 11 13 14 17 13 13 17 13 13 12 11 12
-0 -0 -0 -0 -0 -0 -0 -0 -0 -1 -0 3 5 5 9 11 10 10 9 9 10 9 10 9 7 9 8 5 6 7 8 8 8 9 8 12 12 13 16 16 20 13 11 10 11 12 12
-0 -0 -0 -0 -0 -0 -0 -0 -0 -0 -0 2 3 5 9 14 10 10 10 9 9 8 9 9 7 6 5 7 11 13 13 12 12 11 10 9 12 15 17 18 16 14 13 11 12 14 16
0 0 0 0 -0 -0 -0 -0 -0 -0 -0 2 2 3 6 10 12 9 10 9 11 13 10 9 7 6 6 9 12 16 17 15 15 13 10 9 9 13 18 19 22 14 13 12 10 15 16
0 0 0 0 0 0 -0 -0 -0 -0 -0 2 3 2 5 9 8 8 9 10 8 9 12 10 9 8 8 11 14 15 18 16 16 16 15 14 13 16 17 21 17 14 14 13 17 16 17
0 0 0 0 0 0 0 -0 -0 -0 -0 1 3 3 5 9 8 8 8 8 8 9 10 9 9 10 11 13 13 15 18 17 16 15 13 14 15 16 15 17 19 18 16 14 17 18 18
0 0 0 0 0 0 0 -0 -0 -0 -0 1 5 4 4 7 8 6 7 6 7 7 7 9 11 12 9 13 16 15 18 19 17 16 14 16 14 15 16 17 19 19 20 18 17 19 20

GFSGBSN_con_lsi_138.txt.gz
Lid_Strength_Index
2 2 2 2 1 1 1 1 1 1 1 1 1 1 1 1 0 -0 -1 -1 -1 -1 -1 -2 -1 -1 1 5 5 -0 -1 -1 0 2 3 4 6 7 10 9 8 9 8 7 6 7 7
2 2 2 2 1 1 1 2 1 1 0 1 1 1 0 0 0 1 -0 -1 -1 -1 -1 -2 -1 -1 3 8 1 -0 -0 0 2 2 3 4 5 5 8 8 9 8 8 8 7 7 7
1 1 2 2 1 1 1 1 2 2 1 1 1 1 0 0 0 -0 -1 -1 -1 -1 -1 -2 -2 0 4 7 1 1 -0 1 1 2 4 3 3 6 7 9 6 7 10 9 8 8 8
1 1 2 2 2 1 1 1 2 1 1 2 2 2 1 0 2 2 -0 -0 -1 -1 -1 -1 -1 2 8 2 2 2 1 1 0 1 2 2 3 5 6 6 8 10 11 15 9 8 7
2 1 1 2 2 2 2 2 2 1 1 1 2 2 2 1 1 1 0 0 1 -0 -1 -1 2 5 9 2 3 2 1 3 2 2 3 2 3 7 8 11 13 11 16 15 12 8 9
2 2 2 2 2 2 2 2 2 1 1 1 1 2 2 2 2 1 1 1 0 1 2 1 2 7 6 6 3 2 1 1 4 4 5 7 7 10 10 12 17 14 15 14 14 11 10
0 1 1 2 2 3 2 2 2 2 1 1 1 1 1 1 1 2 3 5 8 9 5 6 6 8 7 5 2 3 2 3 4 6 11 9 12 13 11 10 10 12 13 14 12 9 11
0 1 1 1 1 2 2 2 3 2 1 1 1 1 1 0 0 0 3 7 8 6 9 6 5 6 5 6 7 5 2 7 8 11 9 11 13 10 9 10 11 12 14 14 11 9 10
1 1 1 1 1 1 1 1 1 1 1 1 0 1 0 -0 -0 1 4 5 2 4 9 7 5 6 6 5 8 7 4 6 9 11 11 12 11 8 10 11 13 13 14 14 13 11 10
1 1 1 1 1 1 0 -0 -0 -0 -0 -0 0 1 -0 -1 2 4 5 2 1 2 12 11 8 7 5 5 9 5 3 6 8 11 10 11 8 10 11 12 11 15 10 11 12 14 17
1 1 1 1 1 1 0 -0 -0 -0 -0 -0 -1 -1 -0 -0 5 5 3 0 1 3 20 10 8 4 5 7 7 8 3 6 10 11 10 12 11 11 12 12 10 13 10 11 12 14 16
2 2 1 2 3 1 1 0 0 0 -0 -0 -0 -1 -1 1 4 3 1 1 3 13 19 12 8 9 9 8 8 6 7 5 6 10 11 11 9 9 10 9 9 9 12 13 13 14 19
1 1 1 1 2 2 2 1 0 0 -0 -0 -0 -1 0 1 5 2 1 3 13 17 11 13 12 10 10 11 10 9 10 11 12 15 15 12 12 10 9 12 11 11 14 19 20 20 20
-1 -0 0 1 1 1 1 1 1 1 0 -0 -0 -0 1 2 1 1 3 9 17 13 13 10 10 10 12 10 10 10 11 13 10 11 14 15 17 11 9 11 13 13 13 18 22 21 19
-2 -1 -2 -1 -1 -0 -0 -1 -0 0 0 -0 -0 2 3 2 1 2 6 14 14 16 11 11 10 13 13 10 11 11 11 12 10 9 14 15 15 11 10 9 10 13 15 11 16 17 18
-1 -2 -1 -1 -1 -1 -1 -1 -1 -1 -1 -1 3 4 5 2 1 3 9 13 15 9 10 10 14 12 14 12 13 12 12 10 11 8 9 12 16 12 10 9 10 11 10 16 16 21 22
-1 -1 -1 -1 -1 -1 -1 -1 -1 -1 -1 -1 3 6 4 1 1 7 13 12 12 8 7 10 12 13 12 13 12 13 13 10 9 9 8 10 12 14 11 13 13 13 14 14 14 16 20
-1 -1 -1 -1 -1 -1 -1 -1 -1 -1 -1 0 4 10 2 0 9 9 11 11 7 9 8 9 10 10 12 11 12 13 13 11 7 8 12 10 12 16 14 10 10 10 12 12 17 18 16
-1 -1 -1 -1 -1 0 -1 -1 -1 -1 -1 2 7 7 2 2 12 11 9 10 9 9 9 10 10 9 9 12 14 11 10 8 7 9 11 10 14 17 16 13 11 13 12 11 11 13 17
-1 -1 -1 -1 -1 -1 -1 -1 -1 -1 -1 2 7 10 7 6 6 10 12 12 11 8 9 8 10 9 10 11 10 13 12 9 7 8 7 8 12 15 17 15 13 15 13 12 13 17 16
-1 -1 -1 -1 -1 -1 -1 -1 -1 -1 -1 2 6 9 10 11 10 9 10 10 11 12 8 8 10 10 10 13 12 12 11 10 8 8 8 9 14 13 13 13 13 13 13 13 14 14 16
-1 -1 -1 -1 -1 -1 -1 -1 -1 -1 -1 4 7 9 7 9 8 9 9 11 11 11 10 11 11 10 10 11 12 13 11 11 11 9 10 9 14 13 15 13 13 14 13 12 13 13 13
-1 -1 -1 -1 -0 -1 -1 -1 -1 -1 -1 5 5 5 6 8 9 10 11 11 10 9 9 8 9 10 11 10 8 8 7 8 9 10 11 11 13 15 17 13 14 16 14 13 12 11 12
-1 -1 -1 -1 -1 -1 -1 -1 -1 -1 -1 3 4 6 9 12 10 10 9 9 9 9 11 9 8 9 8 5 6 7 7 8 8 9 8 12 13 13 16 15 20 14 12 10 11 11 10
-0 -0 -0 -0 -0 -0 -1 -1 -1 -1 -1 2 2 5 10 16 10 10 10 9 8 8 9 9 8 6 5 7 11 13 13 12 12 10 10 9 12 15 17 17 16 15 13 12 13 13 16
-0 -0 -0 -0 -0 -0 -0 -1 -1 -1 -1 1 3 3 5 10 12 9 10 9 12 14 10 8 7 6 6 9 12 16 17 15 15 13 10 10 10 14 16 21 22 15 14 13 11 15 16
-0 -0 -0 -0 -0 -0 -0 -1 -1 -1 -0 1 2 2 5 9 8 8 11 10 9 11 11 9 9 8 7 11 14 15 16 15 16 16 15 14 14 16 16 21 18 15 16 14 16 15 17
-0 -0 -0 -0 -0 -0 -0 -0 -1 -1 -1 1 3 2 5 8 8 7 7 9 9 9 11 9 9 9 10 13 13 15 15 15 16 13 14 15 15 16 16 21 18 20 16 15 17 18 18
0 -0 -0 -0 -0 -0 -0 -0 -0 -1 -1 0 5 3 3 7 8 5 6 6 6 7 8 9 9 9 9 12 16 16 18 17 19 16 13 15 14 16 15 17 21 20 20 18 17 19 20

GFSGBSN_con_lsi_141.txt.gz
Lid_Strength_Index
1 1 2 1 2 2 0 0 -0 -1 -1 -1 -0 -0 0 -1 -1 -1 -1 -1 -2 -1 -2 -1 -1 -1 1 6 5 0 -1 -1 0 2 3 5 7 8 11 9 8 10 9 7 7 7 7
1 2 2 2 2 2 2 1 1 0 0 -0 -0 -0 0 1 -0 -0 -1 -1 -1 -2 -1 -2 -1 -1 4 9 2 -0 0 1 2 3 3 4 6 5 8 9 10 8 8 8 7 7 8
1 1 2 1 2 2 2 2 2 1 1 1 0 1 1 1 1 0 -0 0 0 -0 -1 -2 -2 1 5 6 2 2 0 1 1 2 4 3 3 6 6 9 7 8 11 9 9 8 9
1 1 1 1 1 2 1 1 2 2 2 1 1 1 1 1 1 1 1 0 1 0 0 1 -1 3 8 3 2 3 3 2 1 1 2 2 3 5 6 7 8 12 11 15 10 9 8
1 1 1 1 1 1 1 1 1 1 2 2 2 2 1 1 1 1 1 2 1 -0 1 1 3 6 9 2 5 3 3 3 2 2 3 2 4 7 7 11 13 13 16 16 12 8 9
1 1 1 1 1 1 1 1 1 2 1 1 2 2 2 2 2 2 1 1 1 2 2 2 4 7 7 7 4 3 2 2 4 4 5 6 7 10 10 12 16 14 16 13 14 11 10
0 0 1 1 1 0 0 1 1 2 2 1 1 1 1 1 2 1 2 5 8 8 6 8 8 8 8 5 2 4 2 3 4 6 10 9 12 13 11 10 11 13 14 15 12 9 11
-1 -0 0 0 1 1 1 0 1 2 2 1 1 1 1 0 0 1 4 8 8 8 10 7 6 7 6 5 7 5 2 7 8 11 9 11 13 10 8 9 10 11 13 13 11 9 11
-0 -1 -1 -0 -0 1 1 1 1 1 1 1 1 1 0 0 -0 2 4 6 4 6 11 9 7 7 7 7 9 7 5 6 9 11 11 12 10 8 10 12 13 13 14 14 14 11 10
0 -0 -0 -0 -0 -0 1 0 1 1 1 1 1 0 -0 -0 4 5 5 3 2 3 12 14 10 8 7 7 10 6 4 7 9 11 11 11 9 10 11 12 11 15 11 12 13 15 17
1 1 -0 0 0 0 -0 0 -0 -1 0 -0 0 0 -0 1 5 6 4 1 1 3 20 12 10 6 6 9 9 9 3 6 10 11 10 13 12 11 13 11 10 12 10 11 12 14 16
1 1 1 0 0 1 0 0 0 -1 -1 -1 -1 -1 -1 2 4 4 1 1 3 13 19 16 9 10 10 9 9 8 7 6 7 10 11 12 8 9 10 9 9 9 11 12 13 14 19
1 1 1 1 1 1 1 0 -0 -0 -1 -1 -1 -1 -0 1 6 2 1 4 13 17 13 17 13 10 10 11 10 9 10 11 12 15 15 12 11 10 8 11 11 11 13 19 20 20 20
-1 -0 1 1 1 1 1 1 0 -0 -1 -1 -1 -1 -0 1 1 0 2 9 17 17 17 13 12 10 12 11 10 10 11 13 9 11 14 15 17 11 9 10 13 13 13 18 22 21 19
-2 -1 -1 -0 0 1 1 1 1 0 -0 -1 -1 1 2 1 1 1 6 14 15 17 13 12 11 13 13 11 12 10 11 12 10 10 14 15 15 11 10 9 9 13 15 11 17 17 19
-1 -1 -1 -2 -1 -0 0 1 1 0 0 -0 3 4 4 1 1 3 9 13 15 10 10 10 15 13 14 13 13 12 12 10 11 9 8 12 16 12 10 10 9 11 10 16 15 21 22
-1 -1 -1 -2 -1 -1 -1 -0 -0 -0 -0 -1 3 7 4 1 1 7 13 12 15 9 8 10 12 13 13 13 12 13 13 10 8 9 8 10 12 14 11 13 13 13 14 13 14 16 20
-1 -1 -1 -2 -1 -1 -1 -1 -1 -1 -1 0 4 10 3 1 9 9 11 10 8 10 9 9 10 11 12 11 12 12 13 11 8 8 11 9 12 16 14 12 10 10 12 12 17 18 16
-1 -1 -1 -1 -1 -1 -1 -1 -1 -1 -1 2 8 7 2 2 12 11 9 10 9 10 10 10 11 10 10 11 14 11 11 8 8 8 11 10 14 18 16 13 11 13 12 11 12 13 17
-1 -1 -1 -1 -1 -1 -1 -1 -1 -1 -1 3 7 10 7 5 6 10 11 11 11 9 9 9 9 8 10 12 10 12 12 9 7 8 7 8 12 15 16 16 13 14 13 12 12 17 16
-1 -1 -1 -1 -1 -1 -1 -1 -1 -1 -1 3 6 9 9 11 10 9 9 11 11 12 9 8 10 10 11 14 13 13 11 10 9 8 8 9 15 13 12 13 13 13 13 13 14 13 16
-1 -1 -1 -1 -1 -1 -1 -1 -1 -1 -1 4 8 8 8 13 8 9 9 11 11 10 10 11 11 10 10 11 11 12 11 11 11 9 10 9 14 13 15 12 13 14 13 12 12 12 12
-1 -1 -1 -1 -1 -1 -1 -1 -1 -1 1 5 4 5 7 8 9 10 10 11 10 9 8 7 9 10 11 9 7 7 7 8 9 10 11 11 13 15 17 13 14 17 14 13 12 11 12
-1 -1 -1 -1 -1 -1 -1 -1 -1 -1 1 4 5 6 8 11 10 10 9 9 9 9 10 9 8 9 7 6 6 7 8 8 8 9 8 11 12 13 16 15 20 13 10 10 11 11 10
-1 -1 -1 -1 -1 -1 -1 -1 -1 -1 -1 3 3 6 9 12 10 9 9 9 8 8 8 9 8 6 5 7 11 13 13 12 11 10 9 9 12 15 17 17 15 15 13 12 13 13 12
-1 -1 -1 -0 -1 -1 -1 -1 -1 -1 -1 3 3 3 5 9 11 8 9 8 12 12 9 9 6 5 6 9 12 16 18 14 15 13 9 10 10 14 17 19 20 15 14 14 10 15 15
-1 -1 -1 -0 -1 -1 -1 -1 -1 -1 -1 2 4 2 4 9 9 7 10 9 8 10 10 9 8 8 7 11 18 18 17 13 16 16 15 14 14 16 16 17 15 14 17 15 16 15 17
-0 -0 -0 -0 -1 -1 -1 -1 -1 -1 -1 0 3 2 3 9 8 7 7 9 9 9 11 9 9 9 10 13 14 15 14 14 15 13 14 15 16 16 16 17 18 20 17 15 17 18 18
-0 -0 -0 -0 -1 -1 -1 -1 -1 -1 -1 -1 4 2 2 6 7 5 6 6 6 7 8 8 8 9 8 11 13 15 17 14 16 16 12 15 13 14 14 16 21 22 21 19 18 19 20

GFSGBSN_con_lsi_144.txt.gz
Lid_Strength_Index
1 1 1 0 0 0 1 1 -0 -1 -0 1 0 0 0 -1 -1 -1 -0 -1 -1 -1 -1 -1 -1 -1 1 6 6 0 -1 -1 0 1 3 5 7 8 11 10 9 11 9 8 7 7 8
1 1 1 1 1 1 1 1 1 0 -0 -0 1 -0 1 0 1 -1 -1 -1 -1 0 1 -1 -1 -1 4 9 2 1 0 1 2 3 4 4 6 6 9 10 10 8 8 8 7 8 8
0 0 1 1 1 1 1 1 1 1 0 -0 0 0 -0 -0 1 -1 -1 -1 -1 -1 0 -0 -2 1 6 7 2 3 1 2 1 3 5 4 4 6 7 10 7 8 11 9 8 8 9
0 0 0 1 1 1 1 1 1 1 1 1 0 0 -0 1 -0 1 -0 0 1 -1 -1 -1 -1 4 9 3 3 3 3 3 1 1 3 2 3 5 7 7 8 12 12 15 10 9 8
0 0 0 1 1 1 1 1 1 2 2 1 1 1 1 0 0 0 0 -0 1 0 -0 0 3 5 9 2 5 3 3 4 2 2 2 2 4 7 8 11 14 13 17 16 12 9 9
-0 0 0 -0 0 1 1 1 1 1 2 2 1 2 1 1 1 1 1 1 1 2 3 2 3 8 7 9 6 4 3 2 4 4 5 6 7 11 11 12 17 14 15 14 14 11 10
-1 -1 0 0 -0 0 0 1 1 1 1 1 2 1 1 1 1 1 2 5 8 8 7 9 8 9 9 7 5 6 3 3 4 7 11 9 11 13 12 11 11 11 13 15 12 10 11
-1 -1 -1 -0 0 -0 -0 0 0 1 0 1 1 1 1 1 1 1 4 8 9 8 11 7 7 7 7 6 8 7 4 7 8 11 9 11 13 10 9 9 11 12 13 13 11 9 11
-1 -1 -1 -1 -1 -0 -0 -0 0 0 0 1 1 1 1 1 0 2 6 7 5 5 11 10 8 7 8 7 9 9 6 8 10 11 11 12 11 8 10 12 12 12 13 13 14 11 12
-0 -1 -1 -1 -1 -1 -1 -0 -1 0 0 -0 1 1 1 -0 3 5 5 4 4 5 14 14 11 9 7 7 10 6 6 8 11 11 10 11 9 10 12 12 11 15 11 12 13 15 17
0 1 -1 -1 -1 -1 -1 -1 -0 0 0 -0 -1 0 -0 0 5 6 4 2 2 3 22 13 11 7 7 9 10 9 5 8 11 11 10 14 12 12 12 12 10 12 10 11 12 14 16
0 0 1 -0 -1 -1 -1 -1 -1 -0 -0 0 -1 -1 -0 2 4 4 1 1 3 13 21 17 10 10 10 9 10 8 7 7 9 11 12 13 11 11 11 10 9 10 11 12 13 14 19
-1 0 0 0 -0 -0 -1 -1 -1 -1 -1 -1 -0 -1 0 2 6 2 0 3 13 17 16 16 13 10 11 11 10 9 10 11 12 15 15 12 12 11 10 12 10 11 14 18 20 19 20
-1 -1 -1 0 0 0 -0 -0 -1 -1 -1 -1 -1 -1 -0 2 2 1 3 9 17 17 19 14 12 11 12 11 10 10 11 13 10 13 15 15 17 11 9 11 13 12 13 18 22 21 19
-1 -1 -1 -1 0 1 0 0 -0 -1 -1 -1 -1 1 2 1 0 1 7 14 14 17 14 13 12 13 13 11 12 11 11 12 10 9 14 16 15 12 11 9 9 13 15 11 16 19 19
-1 -1 -1 -1 -1 -1 0 0 0 -0 -1 -1 2 3 3 1 0 3 9 13 14 12 12 11 16 14 16 13 13 12 12 11 11 8 8 12 16 13 11 9 9 11 10 16 15 21 22
0 -1 -1 -1 -1 -1 -1 -0 -0 -0 -1 -1 3 6 3 0 1 7 13 12 13 10 9 11 14 15 15 14 12 13 14 12 10 9 8 10 13 14 11 13 14 13 14 13 13 16 20
0 -1 -1 -1 -1 -1 -1 -1 -1 -1 -1 0 4 10 3 1 9 9 11 11 9 10 9 10 11 12 13 12 13 13 13 12 10 8 11 9 12 15 14 12 10 10 12 13 17 18 16
1 0 -1 -1 -1 -1 -1 -1 -1 -1 -1 2 8 8 2 2 12 11 9 10 9 10 10 10 11 10 10 11 14 11 11 9 8 8 10 9 13 17 16 13 11 13 12 11 12 13 16
1 -0 -1 -1 -1 -1 -1 -1 -1 -1 -1 3 8 11 7 5 6 10 11 11 11 9 10 9 10 9 11 12 10 13 11 9 8 8 7 8 12 14 17 15 13 15 13 12 13 16 16
1 -0 -1 -1 -1 -1 -1 -1 -1 -1 -1 3 8 9 8 11 10 9 9 11 11 11 10 9 11 11 12 16 14 13 11 10 9 8 8 9 14 13 12 12 13 13 13 13 14 13 16
1 -1 -1 -1 -1 -1 -1 -1 -1 -1 -1 4 8 9 9 9 8 9 9 11 12 10 10 12 12 11 10 13 12 13 11 11 11 9 10 9 14 13 15 12 12 14 13 12 12 12 12
0 -1 -1 -1 -1 -1 -1 -1 -1 -1 -1 6 5 5 8 8 9 10 10 10 10 9 8 8 9 10 10 10 8 8 7 8 8 10 11 11 13 15 17 13 13 16 13 13 12 11 12
-1 -1 -1 -1 -1 -1 -1 -1 -1 -1 0 4 5 5 10 11 9 10 9 9 9 9 10 8 8 9 8 5 5 7 7 8 8 9 8 12 13 13 16 15 20 13 12 10 11 11 10
-1 -1 -1 -1 0 2 -0 -1 -1 -1 0 4 5 6 10 12 10 9 9 9 8 8 8 8 7 7 5 7 11 13 13 12 12 10 10 9 12 15 17 16 14 13 13 12 12 12 9
-1 -1 -1 -1 -1 -1 -1 -1 -1 -0 -0 2 3 4 6 11 12 8 9 9 12 13 10 10 8 6 6 9 12 16 19 18 18 13 9 9 10 14 15 18 20 13 12 13 9 15 11
-1 -1 -1 -1 -1 -1 -1 -1 -1 -1 -1 3 4 3 6 11 10 8 11 10 8 10 13 10 9 8 6 11 13 18 17 15 18 18 16 14 13 15 15 17 16 15 15 14 16 14 16
-1 -1 -1 -1 -1 -1 -1 -1 -1 -1 -1 2 4 3 5 11 9 8 7 9 9 9 11 10 9 9 9 12 13 16 19 14 16 14 14 14 15 15 15 17 18 18 16 13 16 18 18
-1 -1 -1 -1 -1 -1 -1 -1 -1 -1 -1 0 5 2 2 6 7 6 7 6 7 7 8 7 9 9 8 11 11 16 18 14 16 16 11 15 12 14 13 14 19 21 20 19 18 19 20

GFSGBSN_con_lsi_147.txt.gz
Lid_Strength_Index
-0 -0 -0 0 0 0 -0 0 -0 -1 -1 -1 -0 -0 -1 -0 -1 -2 -2 -2 -2 -2 -2 -1 -1 -1 2 6 6 1 -1 -1 0 1 3 5 6 7 9 9 8 10 9 7 7 7 7
-1 -1 -0 -0 0 0 -0 -0 1 -0 -0 -1 -1 1 1 -0 -0 -1 -1 -2 -2 -1 -1 -1 -1 -1 4 10 3 2 1 1 2 2 4 4 5 5 8 9 9 8 8 8 7 7 7
-1 -0 -0 -0 0 0 -0 -0 0 0 0 0 -1 -1 1 1 -0 -0 -0 -1 -1 -1 -1 -1 0 2 6 8 2 3 2 2 2 2 4 3 3 6 6 9 7 8 11 9 8 8 8
-1 -1 -1 -0 -0 0 0 0 0 0 0 1 1 0 0 1 1 -0 1 1 -1 -0 -1 0 -1 5 9 5 3 4 3 3 1 1 2 2 3 5 7 6 8 10 10 14 9 8 8
-1 -1 -1 -1 -1 -0 -0 0 0 0 1 1 1 1 0 0 1 1 0 1 1 0 -1 -0 4 4 9 4 7 5 4 4 2 2 2 2 3 7 8 10 13 12 15 15 12 8 9
-1 -1 -1 -1 -1 -1 -1 -0 -0 1 1 1 2 1 1 1 0 1 1 1 0 2 2 1 3 7 7 9 6 5 4 2 4 4 5 6 7 10 10 12 17 15 15 13 13 10 10
-1 -1 -1 -1 -1 -1 -1 -1 -0 0 1 1 2 2 1 1 1 0 2 5 8 9 6 8 7 8 8 5 3 4 3 4 4 6 10 8 11 13 11 11 11 11 13 13 12 9 11
-1 -1 -1 -1 -1 -1 -1 -1 -1 -1 0 1 1 2 2 1 1 1 4 7 7 7 10 7 7 6 6 6 8 6 4 8 8 11 9 10 13 10 9 10 11 12 13 14 11 9 11
-0 -1 -1 -1 -1 -1 -1 -1 -1 -1 -1 0 1 1 1 1 0 2 5 7 5 6 11 10 8 8 7 6 10 9 7 8 10 11 11 14 12 10 10 11 12 12 13 13 13 11 11
1 -1 -1 -1 -1 -1 -1 -1 -1 -1 -1 -0 0 0 0 1 4 4 5 4 4 5 14 14 11 9 7 7 11 7 6 8 9 12 11 11 11 11 11 12 11 15 10 11 12 13 16
0 -0 -1 -1 -1 -1 -1 -1 -1 -1 -1 -1 -0 -0 -0 1 5 6 4 3 4 7 23 13 11 7 7 10 10 8 6 8 11 11 12 14 12 12 13 12 10 12 10 11 12 14 15
-0 -0 -0 -0 -1 -1 -1 -1 -1 -1 -1 -1 -1 -0 -0 3 5 4 2 3 5 15 23 18 11 10 10 10 10 7 8 7 8 10 12 13 11 11 12 11 10 10 11 11 12 14 18
-1 -1 -1 -0 -1 -1 -1 -1 -1 -1 -1 -1 -1 -1 0 2 6 2 1 5 13 18 17 17 14 11 11 11 10 10 10 11 13 15 15 12 13 11 11 13 11 10 13 18 19 19 19
-1 -1 -1 -1 -1 -0 -1 -1 -1 -1 -1 -0 -0 -1 0 2 1 0 3 9 17 19 20 15 12 11 13 11 11 10 11 13 11 13 16 16 18 12 10 11 13 12 13 17 22 21 19
-1 -1 -1 -1 -1 -1 -1 -1 -1 -1 -1 -1 -0 2 2 2 -0 1 6 14 15 18 14 13 12 13 13 11 12 11 12 12 10 10 14 16 15 12 10 9 9 13 15 11 16 19 18
0 -1 -1 -1 -1 -1 -1 -1 -1 -1 -1 -1 2 4 3 1 0 3 9 13 15 13 11 12 17 14 17 13 14 12 12 11 11 9 8 12 16 12 11 9 9 11 10 16 16 21 22
0 -0 -1 -1 -1 -1 -1 -1 -0 -1 -1 -0 3 7 3 0 1 7 13 12 14 11 10 12 14 15 14 13 13 13 14 12 10 9 8 10 12 14 11 13 13 13 14 13 13 16 19
1 0 -0 -1 -1 -1 -1 -1 -1 -1 -1 1 5 11 3 1 9 10 11 10 9 11 11 11 12 12 13 12 13 13 14 12 10 9 11 9 12 16 14 12 10 10 12 13 16 18 16
1 1 0 -0 -1 -1 -1 -1 -1 -1 -1 2 9 8 3 3 12 11 10 10 10 11 11 11 12 11 12 12 14 12 12 10 9 9 10 10 13 17 17 13 11 13 12 11 12 13 16
1 1 0 -0 -1 -1 -1 -1 -1 -1 -1 3 8 11 7 6 6 9 11 11 11 9 10 9 10 10 11 12 11 13 12 9 8 8 7 8 12 14 17 15 13 14 13 12 13 16 15
1 1 1 -0 -1 -1 -1 -1 -1 -1 -1 3 8 9 8 11 10 9 10 12 12 14 10 9 10 10 11 15 12 12 11 10 9 7 8 9 14 13 12 12 12 13 13 12 14 13 15
1 1 0 -0 -1 -1 -1 -1 -1 -1 -1 4 9 9 8 10 8 9 9 11 11 11 11 12 12 10 10 12 11 12 11 11 11 9 10 9 13 12 14 12 12 14 12 12 12 12 12
0 0 -1 -1 -1 -1 -1 -1 -1 -1 -1 6 5 5 7 8 9 10 10 11 10 9 10 9 10 10 11 10 8 8 7 8 9 10 11 11 13 14 17 13 13 16 13 13 12 11 11
-0 -1 -1 -1 -1 -1 -1 -1 -1 -1 -1 3 4 5 8 11 10 10 9 9 10 9 10 9 8 9 9 6 6 7 8 8 9 10 9 11 12 13 16 15 20 14 12 10 11 10 9
-1 -1 -1 -1 -1 -1 -1 -1 -1 -1 -1 2 3 5 8 11 9 9 10 10 9 8 9 9 8 7 6 7 11 13 14 16 14 10 10 9 11 14 17 17 14 13 12 11 12 12 9
-1 -1 -1 -1 -1 -1 -1 -1 -1 -1 -1 1 2 4 7 11 10 8 10 9 12 14 11 10 7 6 6 10 15 18 18 19 20 18 10 9 9 13 15 18 19 15 13 11 9 15 9
-1 -1 -1 0 -0 -1 -1 -1 -1 -1 -1 2 3 4 7 12 11 9 11 10 9 11 13 12 8 8 8 11 14 19 19 15 18 17 14 13 13 15 15 17 15 12 13 11 16 14 13
-1 -1 -1 -1 -1 -1 -1 -1 -1 -1 -1 2 4 3 6 12 9 8 8 9 9 10 13 11 11 10 9 12 14 15 21 15 16 15 15 14 15 15 14 16 18 14 13 13 13 16 16
-1 -1 -1 -1 -1 -1 -0 -1 -1 -1 -1 1 5 3 4 7 9 6 7 6 6 6 9 8 10 10 8 14 13 15 14 14 20 16 11 16 11 13 13 13 15 18 20 18 17 16 18

GFSGBSN_con_lsi_150.txt.gz
Lid_Strength_Index
-1 -1 -1 -1 -1 -1 -0 0 -1 -1 -1 -1 -1 -1 -0 -1 -1 -1 -2 -2 -2 -2 -2 -2 -1 -1 0 5 6 0 -1 -1 -1 0 2 3 5 5 7 7 7 8 7 6 6 6 6
-1 -1 -1 -1 -1 -1 -0 -0 -0 -0 -1 -1 -1 -1 -1 -1 -1 -1 -2 -1 -2 -2 -2 -2 -2 -1 2 10 2 1 0 -0 0 1 3 3 4 4 6 7 7 7 7 7 6 6 6
-1 -1 -1 -1 -1 -1 -1 -0 -0 -0 -0 -1 -1 -1 -2 -1 -0 -0 -1 -1 -1 -1 -1 -2 -2 -0 4 7 1 1 1 1 1 1 3 2 2 5 5 8 5 6 8 7 7 7 7
-1 -1 -1 -1 -1 -1 -1 -0 -0 -0 -0 -0 -0 -1 -1 -2 -2 -1 -1 -2 -0 -1 -2 -2 -1 2 6 2 2 3 2 2 -0 0 1 1 2 4 6 5 7 9 8 11 8 7 6
-1 -0 0 -1 -1 -1 -1 -1 -0 -0 -0 0 1 0 -0 -1 -1 -0 -1 -1 -1 0 0 -1 1 4 6 1 4 3 3 3 2 1 1 1 3 5 6 9 10 10 12 12 10 7 8
0 1 1 -1 -1 -1 -1 -1 -1 -0 0 0 1 1 0 0 -0 0 1 1 0 1 1 2 2 6 5 6 4 4 3 1 3 3 5 5 6 8 8 10 14 13 13 11 11 9 8
1 2 1 -1 -1 -1 -1 -1 -1 -1 -0 0 1 1 0 -0 0 -1 1 3 6 7 5 7 7 7 7 4 3 4 3 4 3 6 9 7 10 12 10 9 9 10 11 12 10 8 9
1 2 1 1 -1 -1 -1 -1 -1 -1 -1 -1 0 1 1 0 0 0 1 5 6 6 9 6 6 6 5 4 7 6 3 6 7 9 8 10 12 8 8 8 10 10 12 12 10 8 9
0 1 1 1 -1 -1 -1 -1 -1 -1 -1 -1 -0 1 1 0 1 2 4 5 3 4 10 9 7 7 6 5 7 7 5 6 7 10 9 11 10 7 9 10 11 11 12 12 12 9 9
-1 1 1 2 -1 -1 -1 -1 -1 -1 -1 -1 -0 0 1 1 4 4 5 4 3 3 12 12 10 8 7 6 8 5 4 6 7 10 9 10 8 10 10 11 11 13 10 10 11 13 14
-1 1 1 1 -1 -1 -1 -1 -0 -1 -1 -0 -1 -0 -0 1 4 6 4 2 3 4 19 11 11 5 6 8 8 7 4 7 9 9 9 12 11 11 11 11 9 12 9 10 10 12 13
-1 0 0 2 1 -1 -1 -1 -1 -1 -1 -1 -1 -1 -1 2 3 3 2 2 4 14 20 14 10 10 10 9 9 7 7 6 7 9 9 11 9 9 10 9 9 9 10 11 11 13 18
0 0 0 1 2 -1 -1 -1 -1 -1 -1 -1 -1 -0 0 0 4 2 1 6 13 17 13 15 13 11 11 11 10 9 10 11 12 14 14 11 12 10 9 11 9 10 12 17 18 19 18
1 -0 0 -0 0 -0 -1 -0 -1 -1 -1 -1 -0 -0 0 0 0 1 4 10 17 13 16 13 11 11 13 10 11 10 11 12 10 12 13 15 16 11 9 10 11 12 12 15 20 19 17
0 0 -0 -0 -1 -1 -1 -1 -1 -1 -1 -0 -1 1 2 1 -1 1 6 14 14 14 12 12 11 13 14 11 11 10 11 12 10 10 14 15 15 10 9 9 9 12 14 10 15 16 17
0 -0 0 -0 -1 -1 -1 -1 -0 -0 -1 -1 3 3 4 0 -1 3 9 13 12 11 10 10 13 12 14 12 12 12 11 10 10 8 8 12 15 11 10 8 8 10 9 16 15 20 20
0 -0 -1 -0 -1 -1 -1 -1 -1 -0 1 0 4 8 4 -0 1 7 13 12 11 11 9 11 12 13 12 12 11 12 12 10 8 8 7 9 11 13 10 12 12 12 13 12 13 15 18
1 0 -0 -1 -0 -1 -1 -1 -1 -1 -0 2 7 11 3 1 9 11 11 11 8 10 9 10 9 11 11 10 12 11 12 10 7 7 11 9 11 14 13 9 8 9 11 12 15 17 15
0 0 -0 -0 -1 -1 -1 -1 -1 -0 -0 5 10 8 3 3 12 11 10 10 9 9 9 10 10 9 10 11 13 11 10 8 7 8 10 9 13 16 16 12 10 12 11 10 11 12 15
1 0 -0 -0 -1 -1 -1 -1 -1 -1 -0 4 9 11 7 6 9 10 11 11 11 9 9 9 9 9 10 11 10 11 11 8 7 7 7 7 11 13 16 13 11 13 12 11 12 16 15
0 1 0 -0 -0 -1 -1 -1 -1 -1 0 4 8 10 10 11 11 10 9 10 11 11 9 8 9 9 10 13 11 12 10 9 8 7 8 8 13 11 11 11 11 11 12 11 13 12 15
1 1 1 0 -0 -1 -1 -1 -1 -1 -1 5 9 9 8 9 8 9 9 11 11 10 9 10 10 9 9 11 10 12 10 9 10 8 9 8 13 11 14 11 11 13 11 11 11 11 11
0 0 -0 0 -0 -1 -1 -1 -1 -1 1 7 6 6 6 8 9 10 10 10 10 8 8 7 8 9 9 8 7 6 6 6 7 8 9 9 11 13 16 12 13 16 13 11 10 10 10
-0 -0 -1 -1 -1 -1 -1 -1 -1 -1 1 3 4 5 7 10 9 9 9 8 9 8 9 8 7 8 7 5 6 6 7 7 7 7 7 10 11 12 15 13 19 12 9 9 10 9 8
-1 -1 -1 -1 -1 -2 -1 -1 -1 -1 -1 2 3 4 6 10 8 8 8 8 7 7 8 8 8 6 5 6 10 12 12 12 11 8 8 8 10 13 16 16 13 13 11 10 11 11 7
-1 -1 -1 -1 -1 -1 -1 -1 -1 -1 -1 1 2 3 4 8 9 7 8 7 9 10 9 9 6 5 5 8 11 15 16 14 14 13 9 8 8 12 14 17 19 14 9 7 8 14 8
-1 -1 -1 -1 -1 -1 -1 -1 -1 -1 -1 0 2 1 4 7 8 7 8 8 7 8 9 10 8 7 6 10 13 14 14 12 14 15 14 13 13 15 15 16 13 10 8 7 14 14 8
-1 0 0 -0 -0 -1 -1 -1 -1 -1 -1 -0 2 2 4 7 7 6 7 8 8 7 9 9 8 8 9 12 12 12 13 12 12 11 12 13 14 15 14 16 17 10 11 11 8 10 12
-1 -1 -1 -1 -1 -1 -1 -1 -1 -1 -1 -0 3 2 2 5 6 5 5 5 5 5 6 6 7 8 7 10 10 10 12 12 12 14 9 13 10 12 11 12 8 10 8 11 13 11 13